This demonstration page uses our WeatherBlox Daily Observations layout. Learn more.

Left ArrowRight Arrow

Hourly Observations for September 29, 2020

Temp ( °F °C ) Dew Point ( °F °C ) Humidity (%) Winds ( mph kmh ) Pressure ( in mb ) Visibility ( mi km ) Precip ( " mm )
12:51 am 00:51 Clear 69 20.6 33 0.6 26 26 E 10 17 30.09 1019 10 16.0934 0 0
1:51 am 01:51 Clear 68 20 32 0 26 26 E 12 19 30.1 1019 10 16.0934 0 0
2:51 am 02:51 Clear 67 19.4 30 -1.1 25 25 ESE 12 19 30.1 1019 10 16.0934 0 0
3:51 am 03:51 Clear 65 18.3 28 -2.2 25 25 E 9 15 30.11 1020 10 16.0934 0 0
4:51 am 04:51 Clear 64 17.8 27 -2.8 25 25 ESE 8 13 30.13 1020 10 16.0934 0 0
5:51 am 05:51 Clear 61 16.1 27 -2.8 27 27 SE 8 13 30.16 1021 10 16.0934 0 0
6:51 am 06:51 Sunny 63 17.2 30 -1.1 29 29 ESE 10 17 30.16 1021 10 16.0934 0 0
7:51 am 07:51 Sunny 67 19.4 30 -1.1 25 25 SE 9 15 30.16 1021 10 16.0934 0 0
8:51 am 08:51 Sunny 71 21.7 30 -1.1 22 22 SSE 7 11 30.15 1021 10 16.0934 0 0
9:51 am 09:51 Sunny 75 23.9 30 -1.1 19 19 SSE 10 17 30.14 1021 10 16.0934 0 0
10:51 am 10:51 Sunny 79 26.1 32 0 18 18 ESE 12 19 30.11 1020 10 16.0934 0 0
11:51 am 11:51 Sunny 82 27.8 33 0.6 17 17 ESE 13 20 30.09 1019 10 16.0934 0 0
12:51 pm 12:51 Sunny 84 28.9 33 0.6 16 16 ESE 9 15 30.04 1017 10 16.0934 0 0
1:51 pm 13:51 Sunny 86 30 33 0.6 15 15 SSE 10 17 30 1016 10 16.0934 0 0
2:51 pm 14:51 Sunny 88 31.1 33 0.6 14 14 S 10 17 29.96 1015 10 16.0934 0 0
3:51 pm 15:51 Sunny 88 31.1 32 0 13 13 SSE 6 9 29.95 1014 10 16.0934 0 0
4:51 pm 16:51 Sunny 88 31.1 33 0.6 14 14 S 9 15 29.94 1014 10 16.0934 0 0
5:51 pm 17:51 Sunny 86 30 33 0.6 15 15 S 6 9 29.95 1014 10 16.0934 0 0
6:51 pm 18:51 Clear 79 26.1 31 -0.6 17 17 SE 5 7 29.97 1015 10 16.0934 0 0
7:51 pm 19:51 Clear 73 22.8 29 -1.7 19 19 E 6 9 29.99 1016 10 16.0934 0 0
8:51 pm 20:51 Clear 72 22.2 29 -1.7 20 20 E 9 15 30 1016 10 16.0934 0 0
9:51 pm 21:51 Clear 71 21.7 30 -1.1 22 22 SSE 8 13 30.01 1016 10 16.0934 0 0
10:51 pm 22:51 Clear 71 21.7 31 -0.6 23 23 SE 8 13 30.01 1016 10 16.0934 0 0
11:51 pm 23:51 Clear 69 20.6 30 -1.1 23 23 ESE 6 9 30.01 1016 10 16.0934 0 0

Powered by AerisWeather